This is the latest recevied weather packets stored in our database for station/object KE1THD. If no packets are shown the sender has not sent any weather packets the latest 10 day(s).
| Time | Temp. | Humidity | Pressure | Rain* | Wind** | Luminosity | Snow |
|---|---|---|---|---|---|---|---|
| 1777492976 | 13.89° C | 40% | 1016.5 hPa | 0 mm | - | 704 W/m² | - |
| 1777492674 | 13.89° C | 38% | 1016.4 hPa | 0 mm | - | 771 W/m² | - |
| 1777492374 | 13.89° C | 39% | 1016.6 hPa | 0 mm | - | 741 W/m² | - |
| 1777492071 | 13.89° C | 38% | 1016.6 hPa | 0 mm | - | 741 W/m² | - |
| 1777491768 | 13.89° C | 40% | 1016.5 hPa | 0 mm | - | 767 W/m² | - |
| 1777491465 | 13.33° C | 40% | 1016.6 hPa | 0 mm | - | 754 W/m² | - |
| 1777491162 | 13.89° C | 38% | 1016.7 hPa | 0 mm | - | 242 W/m² | - |
| 1777490857 | 14.44° C | 38% | 1016.8 hPa | 0 mm | - | 741 W/m² | - |
| 1777490554 | 13.89° C | 40% | 1016.8 hPa | 0 mm | - | 779 W/m² | - |
| 1777490250 | 13.89° C | 40% | 1016.5 hPa | 0 mm | - | 243 W/m² | - |
| 1777489948 | 13.89° C | 39% | 1016.2 hPa | 0 mm | - | 225 W/m² | - |
| 1777489646 | 13.89° C | 38% | 1016.6 hPa | 0 mm | - | 774 W/m² | - |
| 1777489342 | 13.89° C | 41% | 1016.5 hPa | 0 mm | - | 783 W/m² | - |
| 1777489039 | 13.33° C | 40% | 1016.5 hPa | 0 mm | - | 736 W/m² | - |
| 1777488736 | 13.33° C | 41% | 1016.5 hPa | 0 mm | - | 800 W/m² | - |
| 1777488433 | 13.33° C | 41% | 1016.4 hPa | 0 mm | - | 202 W/m² | - |
| 1777488132 | 13.89° C | 39% | 1016.4 hPa | 0 mm | - | 789 W/m² | - |
| 1777487829 | 13.89° C | 40% | 1016.5 hPa | 0 mm | - | 749 W/m² | - |
| 1777487527 | 13.89° C | 38% | 1016.5 hPa | 0 mm | - | 727 W/m² | - |
| 1777487224 | 13.33° C | 38% | 1016.5 hPa | 0 mm | - | 715 W/m² | - |
| 1777486920 | 13.89° C | 36% | 1016.4 hPa | 0 mm | - | 710 W/m² | - |
| 1777486616 | 13.33° C | 35% | 1016.4 hPa | 0 mm | - | 702 W/m² | - |
| 1777486315 | 13.33° C | 37% | 1016.4 hPa | 0 mm | - | 716 W/m² | - |
| 1777486012 | 13.33° C | 38% | 1016.6 hPa | 0 mm | - | 730 W/m² | - |
| 1777485709 | 13.33° C | 38% | 1016.6 hPa | 0 mm | - | 724 W/m² | - |
* Rain latest hour (hover to see other rain measurements)
** Current wind speed in m/s (hover to see current wind gust speed)